User: anonymous   Login
Location: Newark
(54.6833°N, 25.2833°E)
Time: 12:52:13
(UTC+00:00)
Language:

Transit 2A Rocket - Orbit

View from above orbital plane
View from above orbital plane
View from above satellite
View from above satellite

Ground track
Ground track

The orbit data is extracted from the following two-line orbital elements,

1    47U 60007C   20269.63858473 -.00000039 +00000-0 +16505-4 0  9991
2    47 066.6642 247.1017 0233842 231.1200 126.8840 14.42103140149122
Epoch (UTC): 25 September 2020 15:19:33
Eccentricity: 0.0233842
inclination: 66.6642°
perigee height: 585 km
apogee height: 918 km
right ascension of ascending node: 247.1017°
argument of perigee: 231.1200°
revolutions per day: 14.42103140
mean anomaly at epoch: 126.8840°
orbit number at epoch: 14912

The dashed part of the orbit path shows where the satellite is in the earth's shadow,  

DLR